Regional Weather Roundup
Issued by NWS

Home | Current Version | Previous Version | Text Only | Print | Product List | Glossary On
Versions: 1 2 3 4 5 6 7 8 9 10 11 12 13 14 15 16 17 18 19 20 21 22 23 24 25 26 27 28 29 30 31 32 33 34 35 36 37 38 39 40 41 42 43 44 45 46 47 48 49 50
000
ASUS43 KDMX 282107
RWRIA

WEATHER ROUNDUP FOR IOWA
NATIONAL WEATHER SERVICE DES MOINES IA
400 PM CDT MON JUL 28 2014

NOTE: "FAIR" INDICATES FEW OR NO CLOUDS BELOW 12,000 FEET WITH NO
SIGNIFICANT WEATHER AND/OR OBSTRUCTIONS TO VISIBILITY.

* - THESE STATIONS ARE NOT NWS STATIONS...THUS NOT UNDER NWS
QUALITY CONTROL.  THEY ALSO DO NOT REPORT WEATHER SUCH
AS PRECIPITATION OR FOG.

IAZ001>003-012>014-020>022-031>034-043>046-282200-
   NORTHWEST IOWA

CITY           SKY/WX    TMP DP  RH WIND       PRES   REMARKS
CARROLL *      PTSUNNY   73  63  68 N9        30.21S
CHEROKEE *     PTSUNNY   73  59  60 N8        30.22F
DENISON *      SUNNY     73  57  56 VRB6G14   30.20F
LE MARS *      PTSUNNY   75  57  53 N10       30.23F
ORANGE CITY *  MOSUNNY   75  55  50 N5        30.24S
SHELDON *      CLOUDY    72  59  64 VRB7      30.23S
SIOUX CITY     SUNNY     79  58  48 NW8       30.22F HX  80
SPENCER        PTSUNNY   73  56  54 N8        30.23S
STORM LAKE *   MOSUNNY   72  61  68 NW9       30.23F
$$

IAZ055>058-069>071-079>083-090>094-282200-
   SOUTHWEST IOWA

CITY           SKY/WX    TMP DP  RH WIND       PRES   REMARKS
ATLANTIC *     MOSUNNY   73  59  60 W8        30.20F
AUDUBON *      SUNNY     79  64  61 NW8       30.22F HX  81
CLARINDA *     SUNNY     75  61  60 VRB6      30.22F
COUNCIL BLFS * PTSUNNY   73  61  64 N6        30.22S
CRESTON *      MOSUNNY   73  55  53 NW6       30.21S
HARLAN  *      MOSUNNY   75  57  53 NW9G15    30.25F
LAMONI         MOSUNNY   75  55  49 MISG      30.20F
RED OAK *      MOSUNNY   75  59  57 VRB7G14   30.21F
SHENANDOAH *   MOSUNNY   75  61  60 N8        30.22F
$$

IAZ047>049-059>061-072>074-084-282200-
   CENTRAL IOWA

CITY           SKY/WX    TMP DP  RH WIND       PRES   REMARKS
AMES           PTSUNNY   73  57  57 W8        30.19S
ANKENY *       SUNNY     75  55  50 N7G13     30.18F
CHARITON *     CLOUDY    73  55  53 W6        30.19F
DES MOINES     CLOUDY    73  57  57 W8        30.18F
GRINNELL*      CLOUDY    70  57  64 NW6       30.19F
KNOXVILLE *    CLOUDY    72  54  53 N5        30.18F
MARSHALLTOWN   CLOUDY    72  57  59 NW7       30.18S
PELLA *        MOSUNNY   75  57  53 NW6       30.20F
PERRY *        LGT RAIN  66  63  88 NE6       30.21R
$$

IAZ004>006-015-016-023>025-035-036-282200-
   NORTH CENTRAL IOWA

CITY           SKY/WX    TMP DP  RH WIND       PRES   REMARKS
ALGONA *       CLOUDY    72  57  60 N10       30.21S
CLARION *      PTSUNNY   73  57  56 NW9G15    30.20S
ESTHERVILLE    PTSUNNY   72  55  55 N10       30.21F
FORT DODGE *   CLOUDY    73  59  60 N5        30.21S
MASON CITY     MOSUNNY   76  54  46 NW12      30.20S
FOREST CITY *  CLOUDY    72  54  53 N9        30.19S
IOWA FALLS *   CLOUDY    72  55  56 NW6       30.20S
$$

IAZ007>011-017>019-026>030-037>042-050>054-066-282200-
   NORTHEAST IOWA

CITY           SKY/WX    TMP DP  RH WIND       PRES   REMARKS
CEDAR RAPIDS   CLOUDY    72  50  45 N7        30.15S
CHARLES CITY * PTSUNNY   73  54  49 N12       30.18F
CLINTON *      CLOUDY    72  52  49 N9        30.17S
DECORAH *      CLOUDY    72  52  49 N9G15     30.16S
DUBUQUE        CLOUDY    69  53  56 NW7       30.16S
MONTICELLO *   PTSUNNY   73  52  46 MISG      30.15S
OELWEIN *      PTSUNNY   73  52  46 NW10      30.17S
WATERLOO       PTSUNNY   74  54  49 N6        30.16S
$$

IAZ064-065-067-068-078-282200-
   EAST CENTRAL IOWA

CITY           SKY/WX    TMP DP  RH WIND       PRES   REMARKS
DAVENPORT      CLOUDY    73  53  49 NW12      30.15S
IOWA CITY      PTSUNNY   73  52  47 NW10      30.16F
MT. PLEASANT * PTSUNNY   75  52  43 N8        30.16F
MUSCATINE *    MOSUNNY   75  50  41 NE10G17   30.15F
QUAD CITIES    PTSUNNY   73  50  44 N9        30.14S
$$

IAZ062-063-075>077-085>089-095>099-282200-
   SOUTHEAST IOWA

CITY           SKY/WX    TMP DP  RH WIND       PRES   REMARKS
BURLINGTON     PTSUNNY   75  54  47 N9        30.15S
FAIRFIELD *    PTSUNNY   72  55  56 NW8       30.18S
FORT MADISON * PTSUNNY   73  54  49 N12       30.16F
KEOKUK *       PTSUNNY   72  55  56 N9G16     30.15S
OSKALOOSA *    CLOUDY    72  57  60 NW5       30.19S
CENTERVILLE *  SUNNY     73  55  53 NW6       30.21F
OTTUMWA        CLOUDY    73  56  54 NW9       30.18F
WASHINGTON *   PTSUNNY   72  54  53 N9        30.16F
$$

ABBREVIATIONS USED IN REMARKS
   TC - TEMPERATURES IN CELSIUS
  WCI - WIND CHILL INDEX
   HX - HEAT INDEX
  VSB - VISIBILITY
$$



USA.gov is the U.S. government's official web portal to all federal, state and local government web resources and services.